FW5335 Weather Reports


time (UTC)temp
F
wind
direction
speed
knots
gust
knots
rain 1hr
in
rain 24hr
in
rain mn
in
humidity
%
barometer
mb
20260902132516 73 203 7.8 13.9 0.00 0.01 0.01 74 1018.0
20260902131517 72 203 10.4 17.4 0.00 0.01 0.01 76 1018.2
20260902130540 71 203 9.6 19.1 0.00 0.01 0.01 75 1018.2
20260902125520 71 203 9.6 15.6 0.00 0.01 0.01 76 1018.2
20260902124540 71 203 9.6 20.9 0.00 0.01 0.01 76 1018.1
20260902123538 71 203 9.6 19.1 0.00 0.01 0.01 76 1018.0
20260902122520 71 203 11.3 20.9 0.00 0.01 0.01 75 1018.2
20260902121520 71 203 9.6 19.1 0.00 0.01 0.01 76 1018.4
20260902120519 71 203 10.4 18.2 0.00 0.01 0.01 75 1018.3
20260902115518 71 203 12.2 22.6 0.00 0.01 0.01 77 1018.5
20260902114524 70 203 7.8 13.9 0.00 0.01 0.01 78 1018.7
20260902113520 68 203 8.7 18.2 0.00 0.01 0.01 81 1018.5
20260902112526 68 203 8.7 16.5 0.00 0.01 0.01 79 1018.7
20260902111526 68 203 11.3 17.4 0.00 0.01 0.01 78 1018.6
20260902110519 68 203 11.3 22.6 0.00 0.01 0.01 80 1018.9
20260902105549 69 225 7.8 14.8 0.00 0.01 0.01 77 1019.1
20260902104527 69 203 10.4 17.4 0.00 0.01 0.01 76 1019.0
20260902103518 69 203 8.7 20.0 0.00 0.01 0.01 76 1018.9
20260902102523 69 225 8.7 17.4 0.00 0.01 0.01 77 1018.9
20260902101522 68 225 7.8 14.8 0.00 0.01 0.01 79 1019.1
20260902100520 67 203 8.7 18.2 0.00 0.01 0.01 79 1019.0
20260902095519 67 203 7.0 15.6 0.00 0.01 0.01 79 1019.1
20260902094519 66 203 6.1 12.2 0.00 0.01 0.01 81 1019.1
20260902093523 66 225 7.0 14.8 0.00 0.01 0.01 82 1019.1
20260902092522 65 203 7.8 14.8 0.00 0.01 0.01 82 1019.1
20260902091518 65 203 7.0 11.3 0.00 0.01 0.01 84 1018.9
20260902090520 64 203 6.1 9.6 0.00 0.01 0.01 87 1019.2
20260902085523 63 203 8.7 14.8 0.01 0.01 0.01 86 1019.5
20260902084539 63 203 6.1 9.6 0.01 0.01 0.01 87 1019.5
20260902083518 62 203 3.5 7.8 0.01 0.01 0.01 87 1019.4
20260902082519 62 225 2.6 5.2 0.01 0.01 0.01 87 1019.4
20260902081602 63 225 4.3 7.8 0.01 0.01 0.01 88 1019.4
20260902080518 63 203 4.3 7.8 0.01 0.01 0.01 88 1019.5
20260902075521 63 225 5.2 10.4 0.00 0.00 0.00 87 1019.5
20260902074521 63 203 6.1 12.2 0.00 0.00 0.00 87 1019.4
20260902073524 63 225 5.2 10.4 0.00 0.00 0.00 86 1019.4
20260902072520 63 203 6.1 11.3 0.00 0.00 0.00 86 1019.4
20260902071520 63 203 3.5 5.2 0.00 0.00 0.00 87 1019.3
20260902070520 62 203 5.2 9.6 0.00 0.00 0.00 87 1019.6
20260902065520 62 203 5.2 10.4 0.00 0.00 0.00 88 1019.6
20260902064519 62 203 3.5 7.0 0.00 0.00 0.00 88 1019.5
20260902063520 62 203 2.6 4.3 0.00 0.00 0.00 88 1019.5
20260902062520 62 203 5.2 10.4 0.00 0.00 0.00 88 1019.5
20260902060542 61 203 2.6 5.2 0.00 0.00 0.00 87 1019.3
20260902055520 61 203 4.3 9.6 0.00 0.00 0.00 87 1019.5
20260902054520 61 203 4.3 7.8 0.00 0.00 0.00 87 1019.6
20260902053520 61 203 3.5 7.0 0.00 0.00 0.00 87 1019.6
20260902052520 60 225 3.5 6.1 0.00 0.00 0.00 88 1019.6
20260902051541 60 225 3.5 7.8 0.00 0.00 0.00 89 1019.5
20260902050522 59 225 2.6 5.2 0.00 0.00 0.00 90 1019.5
20260902045518 59 0.0 1.7 0.00 0.00 0.00 89 1019.5
20260902044521 59 225 0.9 1.7 0.00 0.00 0.00 89 1019.5
20260902043518 59 0.0 0.9 0.00 0.00 0.00 89 1019.6
20260902042521 59 0.0 1.7 0.00 0.00 0.00 89 1019.7
20260902041519 59 225 0.9 1.7 0.00 0.00 0.00 88 1019.7
20260902040519 59 0.0 0.0 0.00 0.00 0.00 88 1019.8
20260902035520 59 0.0 2.6 0.00 0.00 0.00 88 1020.0
20260902034519 59 0.0 1.7 0.00 0.00 0.00 89 1020.0
20260902033519 59 0.0 1.7 0.00 0.00 0.00 89 1020.1
20260902032537 59 203 0.9 1.7 0.00 0.00 0.00 89 1020.3
20260902031519 59 203 0.9 2.6 0.00 0.00 0.00 89 1020.3
20260902030520 58 203 0.9 1.7 0.00 0.00 0.00 89 1020.3
20260902025539 58 0.0 0.0 0.00 0.00 0.00 88 1020.5
20260902024520 58 0.0 0.9 0.00 0.00 0.00 88 1020.4
20260902023520 58 0.0 0.9 0.00 0.00 0.00 88 1020.6
20260902022518 58 0.0 0.0 0.00 0.00 0.00 89 1020.7
20260902021518 58 0.0 0.9 0.00 0.00 0.00 88 1020.8
20260902020520 58 203 0.9 1.7 0.00 0.00 0.00 89 1020.7
20260902015523 58 0.0 0.9 0.00 0.00 0.00 88 1020.7
20260902014520 58 0.0 1.7 0.00 0.00 0.00 88 1021.0
20260902013520 58 203 0.9 1.7 0.00 0.00 0.00 88 1021.2
20260902012520 58 0.0 0.9 0.00 0.00 0.00 87 1021.2
20260902011543 58 0.0 0.0 0.00 0.00 0.00 86 1021.3
20260902010517 58 0.0 0.0 0.00 0.00 0.00 85 1021.3
20260902005517 59 0.0 0.9 0.00 0.00 0.00 85 1021.3
20260902004517 59 0.0 0.0 0.00 0.00 0.00 85 1021.3
20260902003517 60 0.0 0.0 0.00 0.00 0.00 85 1021.4
20260902002520 60 0.0 0.0 0.00 0.00 0.00 85 1021.4
20260902001519 60 0.0 0.0 0.00 0.00 0.00 85 1021.5
20260902000517 60 203 0.9 1.7 0.00 0.00 0.00 84 1021.6
20260901235517 60 0.0 0.0 0.00 0.00 0.00 84 1021.6
20260901234517 60 0.0 1.7 0.00 0.00 0.00 83 1021.7
20260901233520 60 203 0.9 1.7 0.00 0.00 0.00 83 1021.9
20260901232537 60 203 0.9 1.7 0.00 0.00 0.00 82 1021.9
20260901231519 60 0.0 1.7 0.00 0.00 0.00 82 1021.9
20260901230521 60 0.0 0.9 0.00 0.00 0.00 81 1021.6
20260901225520 61 0.0 0.9 0.00 0.00 0.00 81 1021.4
20260901224517 61 203 0.9 1.7 0.00 0.00 0.00 81 1021.6
20260901223519 61 203 0.9 2.6 0.00 0.00 0.00 81 1021.3
20260901222517 61 203 0.9 2.6 0.00 0.00 0.00 80 1021.4
20260901221527 61 225 1.7 3.5 0.00 0.00 0.00 80 1021.3
20260901220523 61 225 1.7 3.5 0.00 0.00 0.00 80 1021.2
20260901215521 62 203 1.7 2.6 0.00 0.00 0.00 79 1021.3
20260901214624 62 203 1.7 3.5 0.00 0.00 0.00 79 1021.4
20260901213525 62 203 1.7 4.3 0.00 0.00 0.00 79 1021.6
20260901212521 62 203 1.7 2.6 0.00 0.00 0.00 78 1021.5
20260901211540 62 225 2.6 4.3 0.00 0.00 0.00 78 1021.6
20260901210517 62 225 2.6 4.3 0.00 0.00 0.00 78 1021.6
20260901205520 62 203 2.6 4.3 0.00 0.00 0.00 77 1021.8
20260901204523 62 225 1.7 5.2 0.00 0.00 0.00 77 1021.8
20260901203519 62 225 1.7 4.3 0.00 0.00 0.00 77 1021.8
20260901202518 62 225 1.7 3.5 0.00 0.00 0.00 77 1021.8
20260901201517 63 225 2.6 5.2 0.00 0.00 0.00 76 1021.9
20260901200520 63 225 1.7 3.5 0.00 0.00 0.00 76 1021.6
20260901195518 63 225 1.7 3.5 0.00 0.00 0.00 75 1021.6
20260901194540 63 225 2.6 4.3 0.00 0.00 0.00 74 1021.6
20260901193520 63 225 1.7 4.3 0.00 0.00 0.00 74 1021.7
20260901192522 64 225 2.6 4.3 0.00 0.00 0.00 73 1021.6
20260901191518 64 225 2.6 4.3 0.00 0.00 0.00 72 1021.5
20260901190520 65 225 2.6 4.3 0.00 0.00 0.00 71 1021.5
20260901185520 65 225 4.3 7.8 0.00 0.00 0.00 70 1021.4
20260901184543 65 225 3.5 8.7 0.00 0.00 0.00 69 1021.1
20260901183519 66 225 5.2 8.7 0.00 0.00 0.00 68 1021.2
20260901182518 66 225 4.3 9.6 0.00 0.00 0.00 68 1021.3
20260901181524 67 225 4.3 8.7 0.00 0.00 0.00 67 1021.2
20260901180518 67 225 3.5 7.8 0.00 0.00 0.00 66 1021.3
20260901175539 67 225 5.2 7.8 0.00 0.00 0.00 65 1021.2
20260901174519 68 225 3.5 7.0 0.00 0.00 0.00 64 1021.4
20260901173541 68 225 2.6 4.3 0.00 0.00 0.00 64 1021.4
20260901172559 68 225 5.2 9.6 0.00 0.00 0.00 62 1021.5
20260901171519 69 225 5.2 10.4 0.00 0.00 0.00 62 1021.6
20260901170517 69 225 5.2 9.6 0.00 0.00 0.00 60 1021.5
20260901165519 70 225 6.1 12.2 0.00 0.00 0.00 60 1021.2
20260901164543 71 225 5.2 10.4 0.00 0.00 0.00 58 1021.1
20260901163519 70 225 4.3 9.6 0.00 0.00 0.00 55 1021.0
20260901162519 71 248 4.3 7.8 0.00 0.00 0.00 55 1021.4
20260901161519 71 270 4.3 9.6 0.00 0.00 0.00 53 1021.3
20260901160519 72 248 5.2 11.3 0.00 0.00 0.00 52 1021.2
20260901155519 72 225 4.3 8.7 0.00 0.00 0.00 52 1021.3
20260901154522 72 270 3.5 7.0 0.00 0.00 0.00 56 1021.5
20260901153521 72 248 3.5 10.4 0.00 0.00 0.00 56 1021.6
20260901152519 72 248 3.5 7.8 0.00 0.00 0.00 52 1021.6
20260901151521 73 270 4.3 10.4 0.00 0.00 0.00 51 1021.4
20260901150536 73 225 3.5 7.8 0.00 0.00 0.00 51 1021.5
20260901145520 73 225 3.5 7.8 0.00 0.00 0.00 53 1021.2
20260901144525 72 225 3.5 8.7 0.00 0.00 0.00 56 1021.6
20260901143517 72 248 4.3 9.6 0.00 0.00 0.00 55 1021.6
20260901142520 71 270 4.3 7.8 0.00 0.00 0.00 57 1021.7
20260901141522 72 270 3.5 7.8 0.00 0.00 0.00 55 1021.7
20260901140519 72 225 6.1 10.4 0.00 0.00 0.00 52 1021.8
20260901135518 72 248 4.3 8.7 0.00 0.00 0.00 57 1021.8
20260901134518 72 225 3.5 8.7 0.00 0.00 0.00 56 1021.8
20260901133519 72 248 3.5 8.7 0.00 0.00 0.00 56 1021.9